Weather History for KLTS - September, 2011

Change the Weather History Date:

Saturday, September 10, 2011

  Actual Average Record
Temperature  
Mean Temperature 73 °F -  
Max Temperature 91 °F 87 °F 98 °F (1999)
Min Temperature 56 °F 64 °F 50 °F (2001)
Cooling Degree Days 8    
Growing Degree Days 23 (Base 50)    
Moisture  
Dew Point 40 °F    
Average Humidity 31    
Maximum Humidity 51    
Minimum Humidity 15    
Precipitation  
Precipitation 0.00 in - - ()
Sea Level Pressure  
Sea Level Pressure 30.02 in    
Wind  
Wind Speed 5 mph (NNW)    
Max Wind Speed 12 mph    
Max Gust Speed 21 mph    
Visibility 10 miles    
Events      
Averages and records for this station are not official NWS values.
T = Trace of Precipitation, MM = Missing Value Source: NWS Daily Summary

Daily Weather History Graph

Daily Weather History Graph

Search for Another Location

Airport or City:

Trip Planner

Search our weather history database for the weather conditions in past years. The results will help you decide how hot, cold, wet, or windy it might be!

Date:

Astronomy

Sep. 10, 2011 Rise Set
Actual Time 7:16 AM CDT 7:51 PM CDT
Civil Twilight 6:50 AM CDT 8:16 PM CDT
Nautical Twilight 6:21 AM CDT 8:46 PM CDT
Astronomical Twilight 5:50 AM CDT 9:16 PM CDT
Moon 6:46 PM CDT (9/10) 5:40 AM CDT (9/10)
Length of Visible Light 13h 25m
Length of Day
12h 34m
Waxing Gibbous, 97% of the Moon is Illuminated
Sep 10
Waxing Gibbous
Sep 12
Full
Sep 20
Last Quarter
Sep 27
New
Oct 3
First Quarter

Hourly Weather History & Observations

Time (CDT) Temp. Dew Point Humidity Pressure Visibility Wind Dir Wind Speed Gust Speed Precip Events Conditions
12:55 AM 67.3 °F 39.0 °F 35% 30.02 in 10.0 mi Calm Calm - N/A   Clear
1:55 AM 66.0 °F 38.3 °F 36% 30.02 in 10.0 mi WNW 3.5 mph - N/A   Clear
2:55 AM 63.3 °F 38.1 °F 39% 30.02 in 10.0 mi NW 4.6 mph - N/A   Clear
3:55 AM 63.1 °F 37.9 °F 39% 30.02 in 10.0 mi NNW 6.9 mph - N/A   Clear
4:55 AM 62.2 °F 37.4 °F 40% 30.02 in 10.0 mi NNW 8.1 mph - N/A   Clear
5:55 AM 61.9 °F 37.6 °F 41% 30.02 in 10.0 mi NW 6.9 mph - N/A   Clear
6:55 AM 61.2 °F 37.6 °F 42% 30.04 in 10.0 mi NNW 5.8 mph - N/A   Clear
7:55 AM 56.3 °F 37.6 °F 50% 30.07 in 10.0 mi North 4.6 mph - N/A   Clear
8:55 AM 62.4 °F 39.4 °F 43% 30.08 in 10.0 mi North 3.5 mph - N/A   Clear
9:55 AM 72.7 °F 39.7 °F 30% 30.09 in 10.0 mi NW 4.6 mph - N/A   Clear
10:55 AM 79.3 °F 40.1 °F 25% 30.09 in 10.0 mi WNW 8.1 mph - N/A   Clear
11:55 AM 82.6 °F 39.4 °F 21% 30.09 in 10.0 mi West 6.9 mph - N/A   Clear
12:55 PM 85.3 °F 39.0 °F 19% 30.06 in 10.0 mi NNW 6.9 mph - N/A   Partly Cloudy
1:55 PM 86.7 °F 39.0 °F 19% 30.03 in 10.0 mi NNE 6.9 mph - N/A   Clear
2:55 PM 88.5 °F 38.7 °F 17% 30.01 in 10.0 mi Variable 5.8 mph - N/A   Clear
3:55 PM 89.8 °F 36.9 °F 15% 29.98 in 10.0 mi NNW 11.5 mph 20.7 mph N/A   Clear
4:55 PM 90.3 °F 37.2 °F 15% 29.97 in 10.0 mi NNW 8.1 mph - N/A   Clear
5:55 PM 90.0 °F 37.0 °F 15% 29.96 in 10.0 mi NW 5.8 mph - N/A   Clear
6:55 PM 89.1 °F 37.6 °F 16% 29.96 in 10.0 mi NW 8.1 mph - N/A   Clear
7:55 PM 85.8 °F 38.3 °F 19% 29.96 in 10.0 mi NNW 5.8 mph - N/A   Clear
8:55 PM 75.6 °F 38.3 °F 26% 29.97 in 10.0 mi NNE 6.9 mph - N/A   Clear
9:55 PM 76.5 °F 47.3 °F 36% 30.00 in 10.0 mi NE 11.5 mph - N/A   Clear
10:55 PM 72.3 °F 49.8 °F 45% 30.02 in 10.0 mi NE 4.6 mph - N/A   Clear
11:55 PM 68.7 °F 49.8 °F 51% 30.03 in 10.0 mi Calm Calm - N/A   Clear